Wind_Speed
8 8 8 8 8 7 7 7 8 8 10 10 11 12 12 12 12 13 13 13 12 12 12 12 12 12 12 13 13 13 13 13 13 13 13 14 14 15 15 16 17 18 18
9 9 9 9 9 9 9 9 9 10 11 11 12 13 13 13 13 14 14 14 14 14 14 14 14 14 14 14 14 14 14 15 15 15 15 16 17 17 17 17 18 19 20
9 10 10 10 10 10 11 11 12 12 12 13 13 14 14 14 15 15 16 16 16 16 16 16 16 16 16 16 16 17 17 17 17 17 18 18 19 19 19 20 20 21 22
10 10 11 11 11 12 12 13 14 14 14 14 15 15 16 16 16 17 18 18 18 18 18 18 18 18 19 18 19 19 20 20 20 20 20 21 21 21 22 22 23 23 24
11 11 11 12 13 14 14 15 15 16 15 16 16 17 18 18 18 19 19 20 20 20 20 20 20 21 21 21 22 22 23 23 23 23 23 23 23 24 24 25 25 26 27
12 12 13 14 15 15 16 16 17 17 17 18 19 19 20 21 21 21 22 22 22 22 22 23 23 23 24 24 24 24 25 25 25 25 25 26 26 26 27 27 27 28 28
12 13 14 16 16 16 16 17 17 18 19 20 21 21 22 23 23 23 23 23 24 24 25 25 26 26 26 26 26 26 26 27 28 28 28 28 29 29 29 29 30 31 31
14 15 16 17 17 18 18 19 19 21 22 22 23 23 24 24 24 24 24 25 26 26 27 27 27 27 27 28 28 29 29 29 30 31 31 32 32 33 33 33 33 33 34
16 17 18 19 19 20 20 21 22 23 24 24 25 25 25 26 26 27 27 27 28 29 29 30 30 30 30 31 31 31 31 32 33 33 34 34 35 36 36 37 37 37 37
17 18 20 21 21 22 22 23 24 25 26 26 27 27 27 28 29 29 30 31 32 32 32 32 32 33 33 34 34 34 34 35 35 35 36 37 37 38 40 41 41 41 41
19 20 21 21 22 23 23 24 25 26 27 28 29 29 30 31 32 33 33 34 34 34 35 35 35 35 35 36 36 37 37 37 38 38 39 39 40 41 41 42 43 44 44
20 21 22 22 23 24 25 26 27 28 29 29 31 32 33 34 34 35 36 36 36 36 36 37 37 37 37 38 38 39 40 40 41 41 41 42 42 42 43 43 44 45 45
22 23 23 24 25 26 27 28 29 30 31 32 33 34 35 36 37 37 38 38 38 38 38 39 39 40 41 41 42 42 42 43 43 44 44 44 45 45 46 46 47 48 48
24 25 26 27 28 29 30 31 32 33 34 35 35 36 37 38 39 39 39 39 40 40 41 42 42 43 44 44 44 44 44 45 46 47 48 48 48 49 50 50 51 51 51
26 27 28 29 30 32 32 33 34 35 36 37 38 39 39 40 40 41 41 41 42 43 44 44 45 46 46 46 47 47 48 48 49 50 51 51 51 52 52 52 53 53 53
29 30 31 32 33 34 35 36 37 38 39 39 40 41 42 42 43 43 44 44 45 46 47 47 48 48 48 49 50 50 51 52 53 54 54 54 54 54 54 54 54 54 54
31 32 34 35 36 37 38 39 39 40 41 42 42 43 44 45 45 46 47 47 48 49 49 49 50 50 51 52 53 54 54 55 55 56 56 56 56 55 55 55 55 55 55
34 35 37 38 39 40 40 40 41 41 42 43 44 45 46 47 48 48 49 49 49 50 50 51 51 52 52 54 55 56 56 56 56 57 57 56 55 54 54 53 53 53 53
37 38 39 40 41 41 41 42 42 43 44 45 46 47 48 48 49 49 49 50 50 51 51 52 52 53 54 54 55 56 56 56 56 56 55 54 53 52 51 50 51 51 51
39 40 41 41 41 42 43 43 44 45 46 47 47 48 49 50 50 50 50 51 51 52 52 53 53 54 55 55 56 55 55 55 54 54 53 52 51 50 49 49 49 49 49
41 41 42 42 43 43 44 45 46 47 47 48 48 49 50 51 51 51 51 52 52 53 53 53 54 55 55 55 55 54 53 53 52 51 50 49 48 48 47 47 47 47 48
43 43 43 43 44 45 45 46 47 48 48 49 50 50 51 51 52 52 52 53 53 54 54 54 54 54 54 54 53 52 51 50 49 48 47 46 46 45 45 45 45 45 46
43 43 44 44 45 45 46 47 48 49 50 50 51 52 52 52 52 52 52 52 52 53 53 53 52 52 51 51 50 49 49 48 47 46 45 44 44 44 44 44 44 43 43
43 44 45 45 46 46 47 48 49 49 50 51 52 52 53 52 52 52 51 51 51 51 51 51 50 50 49 48 48 47 47 46 45 44 44 43 43 43 42 42 42 41 41
45 45 45 46 47 47 48 49 50 50 51 51 52 52 52 51 51 50 50 50 50 49 49 49 50 49 49 48 47 47 46 46 45 45 44 44 43 42 42 41 41 40 40
45 45 46 46 47 47 48 49 49 50 50 51 51 51 50 50 50 50 49 49 49 49 50 50 50 49 48 47 47 46 46 45 45 45 45 44 43 42 42 41 39 39 38
Wind_Direction
261 267 272 277 281 286 293 302 309 316 320 323 327 327 328 327 327 327 327 326 323 321 321 320 318 316 314 313 312 311 309 307 304 297 292 287 285 282 277 272 271 270 269
267 270 272 275 278 283 290 297 302 307 314 318 321 323 324 323 323 324 323 320 318 315 313 313 312 311 311 309 308 307 306 305 302 298 294 291 288 284 281 278 273 272 270
266 270 273 274 278 283 290 294 299 302 307 310 314 317 318 318 318 318 318 318 316 314 311 308 307 307 305 303 302 301 301 301 300 298 295 292 290 286 282 279 277 274 274
270 275 277 278 281 284 290 294 297 300 303 305 307 310 313 313 313 313 313 313 312 311 310 307 305 303 301 300 298 297 297 297 297 296 292 290 288 285 283 280 278 277 276
274 277 283 286 287 288 289 292 295 298 300 302 304 306 309 309 309 309 309 308 308 307 306 304 303 301 300 297 295 294 294 294 293 292 291 289 287 285 283 281 280 278 277
277 281 285 289 290 290 291 292 294 297 300 302 303 305 306 305 305 305 306 306 306 304 303 302 301 299 298 296 294 292 291 291 290 290 290 289 287 285 284 282 281 280 279
279 284 287 289 291 290 291 293 294 297 299 301 302 303 303 303 304 304 304 305 306 305 304 303 301 299 296 294 293 292 292 290 290 289 289 288 287 285 284 283 282 282 281
279 282 288 289 289 290 291 292 294 296 298 300 301 302 302 302 303 303 304 305 305 305 304 304 302 300 297 295 293 292 291 291 289 289 289 288 287 287 286 284 283 282 281
283 285 289 290 289 290 291 291 293 295 296 298 299 300 301 301 301 301 302 303 303 303 303 303 302 301 298 296 295 293 292 291 290 288 288 288 288 287 286 286 285 283 282
286 289 291 292 292 291 291 292 294 295 296 297 298 298 300 301 301 300 301 301 302 302 301 300 299 299 298 297 295 293 291 289 289 289 288 288 288 288 287 286 285 284 283
288 290 292 294 294 293 293 294 295 296 297 297 298 299 300 300 301 301 301 301 301 301 300 299 298 297 297 297 295 294 292 291 290 289 289 289 288 287 286 286 285 284 283
288 290 292 293 294 295 295 295 296 297 298 298 299 300 300 301 301 301 300 300 300 300 299 298 297 297 296 296 296 295 294 293 292 291 290 289 288 287 286 285 284 283 283
288 290 292 293 294 295 295 296 297 298 298 299 300 300 300 301 301 300 299 299 299 298 298 298 297 296 296 296 295 295 294 293 292 291 290 289 289 288 287 286 284 284 283
289 291 292 294 294 296 296 297 297 298 299 299 300 301 301 301 301 300 299 298 297 297 297 297 296 296 296 296 296 295 295 294 293 292 291 290 289 288 287 287 285 284 283
291 292 293 294 294 295 296 296 297 298 299 299 300 301 301 301 301 300 298 297 296 296 296 296 295 295 295 295 295 295 295 294 294 293 292 290 289 289 288 286 285 284 283
290 292 293 294 295 296 297 297 297 298 299 299 299 300 301 301 301 300 299 298 297 296 296 296 295 295 295 295 295 295 294 294 294 293 292 291 289 289 288 286 285 284 283
291 292 293 294 294 295 296 296 296 297 298 298 299 300 300 300 300 300 299 299 299 298 297 297 297 296 296 296 296 295 295 295 294 294 293 292 290 289 288 287 285 285 284
291 292 293 294 294 295 295 295 296 297 298 299 299 300 300 300 300 300 300 299 299 299 298 297 297 297 297 297 297 296 296 295 295 294 293 292 290 289 289 287 286 285 284
291 293 293 294 294 295 295 295 296 297 298 299 299 300 300 300 300 300 300 300 299 299 298 298 298 298 298 298 298 297 297 296 295 294 294 292 290 289 288 288 287 286 286
292 293 294 295 295 295 295 296 297 298 299 299 300 300 300 300 301 301 300 300 300 300 300 300 299 299 299 299 298 297 296 296 295 294 294 292 290 288 288 288 288 287 287
293 294 294 294 295 295 296 297 298 299 299 300 300 301 301 301 301 301 301 301 301 301 301 301 301 300 299 299 298 297 296 296 295 294 293 292 290 289 289 289 288 288 287
293 294 294 294 295 295 296 297 298 299 300 301 302 302 302 302 302 301 301 301 302 302 302 302 302 301 300 299 298 297 296 296 295 294 293 292 291 289 289 290 290 289 288
293 294 294 295 295 296 297 298 299 300 300 301 302 303 303 303 303 303 302 303 303 303 303 303 303 302 301 300 299 297 296 296 294 293 293 293 291 290 290 290 290 288 287
293 294 295 296 296 297 298 299 300 301 301 302 302 303 304 304 304 304 304 304 304 304 303 304 304 303 302 300 299 298 297 296 295 294 294 294 292 291 290 290 290 288 287
293 294 295 296 296 297 298 299 300 301 302 303 303 304 304 304 304 304 304 304 304 304 304 303 303 303 302 301 299 298 297 296 295 295 294 294 292 291 291 291 290 289 288
293 294 295 296 297 298 299 300 301 302 302 303 304 304 304 305 305 305 304 304 304 305 305 304 304 303 302 301 299 298 297 296 294 294 294 294 292 290 290 290 290 289 287
Height
5868 5868 5868 5868 5868 5868 5868 5868 5867 5867 5866 5865 5864 5862 5861 5860 5858 5857 5855 5854 5853 5851 5850 5849 5848 5846 5845 5844 5843 5842 5841 5840 5840 5839 5838 5838 5838 5838 5838 5838 5839 5839 5840
5866 5866 5866 5866 5866 5866 5866 5866 5865 5865 5864 5863 5862 5860 5859 5857 5856 5855 5853 5852 5850 5849 5848 5846 5845 5844 5843 5842 5841 5839 5838 5837 5837 5836 5835 5835 5834 5834 5834 5834 5834 5834 5834
5863 5863 5864 5864 5864 5864 5864 5863 5863 5862 5861 5860 5859 5858 5856 5855 5854 5852 5851 5849 5848 5846 5845 5843 5842 5841 5840 5838 5837 5836 5835 5833 5832 5831 5831 5830 5829 5829 5828 5829 5828 5829 5829
5861 5861 5861 5861 5861 5861 5861 5860 5860 5859 5858 5857 5856 5855 5853 5852 5850 5849 5847 5846 5844 5842 5841 5839 5838 5837 5835 5834 5832 5831 5830 5829 5827 5826 5825 5824 5824 5823 5822 5822 5822 5822 5822
5858 5858 5858 5858 5857 5857 5857 5857 5856 5855 5854 5853 5852 5851 5850 5848 5846 5845 5843 5842 5840 5838 5836 5834 5833 5831 5830 5828 5827 5825 5824 5822 5821 5820 5819 5818 5817 5816 5815 5815 5815 5814 5814
5855 5855 5855 5854 5854 5853 5853 5852 5852 5851 5850 5849 5848 5847 5845 5843 5842 5840 5838 5836 5834 5832 5831 5828 5827 5825 5823 5821 5820 5818 5817 5815 5814 5813 5812 5811 5810 5809 5808 5807 5806 5806 5806
5851 5851 5851 5850 5849 5849 5848 5848 5848 5847 5846 5845 5843 5842 5840 5838 5836 5834 5832 5830 5828 5826 5824 5822 5820 5818 5816 5814 5812 5811 5809 5807 5806 5805 5804 5803 5802 5801 5799 5799 5798 5797 5796
5847 5847 5846 5845 5845 5844 5844 5843 5843 5842 5841 5839 5838 5836 5834 5832 5830 5828 5826 5824 5822 5820 5817 5815 5813 5810 5808 5806 5804 5803 5801 5799 5797 5796 5795 5793 5792 5790 5789 5788 5787 5787 5786
5843 5843 5842 5841 5840 5839 5839 5838 5837 5836 5835 5834 5832 5830 5828 5826 5824 5822 5820 5817 5815 5813 5810 5807 5805 5802 5799 5797 5796 5794 5792 5790 5787 5786 5784 5783 5781 5779 5778 5777 5775 5774 5774
5839 5838 5837 5836 5835 5834 5833 5832 5831 5830 5829 5827 5825 5823 5821 5819 5817 5814 5812 5810 5807 5805 5802 5799 5796 5793 5790 5787 5785 5783 5781 5779 5777 5775 5773 5771 5769 5767 5765 5763 5762 5761 5760
5834 5833 5832 5831 5830 5829 5828 5826 5825 5824 5822 5820 5818 5816 5814 5812 5809 5806 5803 5800 5798 5795 5792 5790 5786 5783 5780 5777 5774 5772 5769 5767 5765 5763 5761 5759 5756 5754 5751 5749 5747 5745 5744
5829 5828 5827 5826 5825 5823 5822 5820 5818 5817 5815 5813 5811 5808 5806 5803 5800 5797 5794 5791 5788 5785 5782 5779 5776 5773 5770 5767 5763 5760 5757 5755 5752 5750 5747 5745 5742 5740 5737 5735 5732 5730 5728
5824 5823 5821 5820 5819 5817 5815 5813 5811 5809 5807 5804 5802 5799 5797 5793 5790 5787 5784 5780 5777 5774 5771 5768 5765 5762 5758 5755 5752 5748 5744 5741 5738 5736 5733 5730 5728 5725 5722 5720 5718 5715 5713
5818 5816 5815 5814 5812 5810 5808 5805 5803 5801 5798 5795 5793 5790 5787 5783 5780 5776 5773 5769 5766 5763 5759 5756 5753 5749 5746 5742 5739 5735 5731 5727 5724 5721 5718 5715 5712 5709 5706 5703 5701 5698 5696
5810 5809 5808 5806 5804 5802 5799 5797 5794 5792 5788 5786 5782 5779 5776 5772 5768 5765 5761 5757 5754 5750 5747 5744 5740 5736 5733 5729 5725 5721 5717 5713 5709 5705 5702 5698 5695 5692 5688 5685 5682 5680 5677
5803 5801 5799 5797 5795 5793 5790 5788 5785 5782 5778 5775 5771 5767 5763 5760 5756 5752 5748 5744 5740 5736 5732 5729 5725 5721 5717 5713 5710 5705 5701 5697 5692 5688 5684 5680 5677 5673 5670 5667 5663 5660 5658
5794 5793 5790 5788 5786 5783 5780 5777 5775 5772 5768 5764 5760 5756 5751 5747 5743 5739 5735 5731 5726 5722 5718 5714 5709 5705 5701 5697 5693 5688 5684 5679 5674 5670 5666 5661 5657 5654 5650 5647 5644 5641 5638
5785 5783 5781 5778 5775 5772 5769 5766 5763 5759 5756 5752 5748 5743 5739 5735 5730 5725 5721 5717 5712 5707 5702 5698 5694 5689 5685 5680 5676 5671 5666 5661 5656 5651 5647 5642 5638 5634 5630 5627 5624 5621 5618
5775 5773 5770 5767 5764 5761 5757 5754 5751 5747 5743 5739 5735 5731 5726 5721 5716 5711 5706 5702 5697 5692 5687 5682 5677 5673 5668 5663 5658 5653 5648 5643 5638 5633 5628 5624 5620 5616 5612 5609 5606 5603 5600
5764 5762 5759 5755 5752 5749 5745 5742 5738 5734 5730 5726 5721 5717 5712 5707 5702 5697 5692 5687 5682 5677 5672 5667 5661 5656 5651 5646 5640 5635 5630 5625 5620 5615 5611 5607 5603 5599 5596 5593 5589 5587 5584
5753 5750 5747 5744 5740 5737 5733 5729 5725 5721 5717 5712 5708 5703 5697 5692 5687 5682 5677 5672 5666 5661 5655 5650 5645 5639 5633 5628 5623 5617 5613 5608 5603 5599 5594 5590 5586 5583 5579 5576 5573 5570 5567
5742 5738 5735 5732 5728 5724 5721 5717 5712 5708 5703 5699 5694 5689 5683 5678 5673 5667 5662 5656 5651 5645 5639 5633 5628 5622 5616 5611 5605 5600 5596 5591 5587 5583 5579 5575 5571 5568 5564 5561 5558 5555 5551
5729 5726 5723 5719 5715 5711 5707 5703 5699 5694 5689 5685 5680 5675 5669 5663 5658 5652 5646 5641 5635 5629 5623 5617 5612 5606 5600 5595 5589 5584 5580 5576 5571 5567 5564 5560 5556 5553 5550 5546 5543 5540 5537
5717 5713 5710 5706 5702 5698 5694 5690 5685 5680 5675 5670 5665 5660 5654 5648 5643 5637 5631 5626 5620 5614 5608 5602 5597 5591 5585 5580 5575 5570 5565 5561 5557 5553 5549 5545 5542 5538 5535 5532 5529 5526 5523
5704 5700 5697 5693 5689 5685 5680 5676 5671 5666 5661 5656 5651 5645 5639 5634 5628 5622 5617 5611 5605 5600 5594 5588 5582 5577 5571 5566 5561 5556 5551 5547 5542 5538 5535 5531 5528 5524 5521 5518 5515 5512 5509
5691 5687 5683 5679 5675 5671 5667 5662 5657 5652 5647 5642 5636 5631 5625 5620 5614 5608 5603 5597 5592 5586 5580 5574 5568 5562 5557 5551 5546 5542 5537 5533 5528 5524 5520 5517 5514 5511 5507 5505 5502 5499 5496